Regional Weather Roundup
Issued by NWS Sioux Falls, SD

Home | Current Version | Previous Version | Graphics & Text | Print | Product List | Glossary On
Versions: 1 2 3 4 5 6 7 8 9 10 11 12 13 14 15 16 17 18 19 20 21 22 23 24 25 26 27 28 29 30 31 32 33 34 35 36 37 38 39 40 41 42 43 44 45 46 47 48 49 50
000
ASUS43 KFSD 032202
RWRFSD

WEATHER ROUNDUP FOR SE SOUTH DAKOTA/SW MINNESOTA/NW IOWA
NATIONAL WEATHER SERVICE SIOUX FALLS SD
500 PM CDT THU SEP 03 2015

NOTE: "FAIR" INDICATES FEW OR NO CLOUDS BELOW 12,000 FEET WITH NO
SIGNIFICANT WEATHER AND OR OBSTRUCTIONS TO VISIBILITY.


SDZ038>040-050-052>070-032300-
SOUTHEAST SOUTH DAKOTA

CITY           SKY/WX    TMP DP  RH WIND       PRES   REMARKS
BROOKINGS      SUNNY     88  70  55 S13G20    29.81S
CHAMBERLAIN    NOT AVBL
HURON          SUNNY     91  70  49 SE13      29.72F HX  96
MADISON        FAIR      84  73  70 SE15      29.79F
MITCHELL       SUNNY     90  72  55 SE15      29.73F HX  97
SIOUX FALLS    MOSUNNY   86  71  60 SE14G22   29.78F
WINNER         FAIR      95  56  26 SE14      29.72F
YANKTON        SUNNY     88  72  58 SE17      29.74F
$$

MNZ071-072-080-081-089-090-097-098-032300-
SOUTHWEST MINNESOTA

CITY           SKY/WX    TMP DP  RH WIND       PRES   REMARKS
FAIRMONT       SUNNY     88  68  51 SE10G17   29.83S
JACKSON        SUNNY     88  73  62 SE12      29.85S HX  96
LUVERNE        SUNNY     88  70  55 SE10G17   29.81S
MARSHALL       SUNNY     90  70  51 S12       29.81F HX  95
MONTEVIDEO     SUNNY     93  75  55 S10       29.81F HX 104
PIPESTONE      SUNNY     88  70  55 SE10      29.82F
REDWOOD FALLS  SUNNY     89  74  60 SE13G18   29.80F HX  98
TRACY          SUNNY     88  75  64 S9        29.82S HX  98
WINDOM         SUNNY     88  72  58 SE10      29.83F
WORTHINGTON    SUNNY     86  72  62 S13       29.83S
$$

IAZ001>003-012>014-020>022-031-032-NEZ013-014-SDZ071-032300-
NORTHWEST IOWA

CITY           SKY/WX    TMP DP  RH WIND       PRES   REMARKS
ESTHERVILLE    MOSUNNY   84  73  69 SE8       29.84S
SIOUX CITY     SUNNY     88  67  49 SE12      29.78F
SPENCER        MOSUNNY   87  73  62 S13       29.82F
$$

ABBREVIATIONS USED IN REMARKS
   TC - TEMPERATURE IN CELSIUS
  WCI - WIND CHILL INDEX
   HX - HEAT INDEX
  VSB - VISIBILITY




USA.gov is the U.S. government's official web portal to all federal, state and local government web resources and services.